Temp
13 13 14 14 14 14 14 14 14 14 14 14 13 13 13 13 13 14 14 14 14 14 13 14 14 14 14 14 14 14 14 14 14 14 14 14 14 14 15 15 15 14 13 13 13
13 13 13 14 14 14 14 14 14 15 14 14 14 14 13 13 13 13 14 14 14 14 14 14 15 15 15 15 15 15 15 15 15 15 15 15 15 15 15 16 15 16 15 13 12
13 13 13 14 14 14 14 15 15 15 15 15 14 14 14 14 14 14 14 14 15 14 14 14 14 14 15 15 15 16 16 16 15 16 16 16 16 16 16 15 16 16 16 14 12
13 13 13 13 14 14 14 14 15 15 15 15 15 14 14 14 14 14 14 14 15 15 15 15 15 15 15 15 15 16 16 16 16 16 15 16 16 16 16 16 16 16 16 14 12
13 13 13 13 13 13 14 14 14 14 15 15 15 15 14 14 14 14 14 14 15 15 15 15 15 15 15 15 16 16 16 15 15 16 16 15 16 15 16 16 16 16 16 15 14
12 13 13 13 13 13 14 14 14 14 14 15 15 15 15 15 14 14 14 14 14 15 15 15 14 14 15 16 16 16 16 16 16 16 16 15 16 16 16 16 16 16 16 16 15
12 13 13 13 14 14 14 14 14 14 14 15 15 15 15 14 15 15 15 14 15 15 15 14 14 14 15 16 16 17 17 17 16 16 16 16 16 16 17 17 16 16 16 16 15
12 12 13 13 13 14 14 14 14 14 14 15 15 15 15 14 15 15 15 15 15 15 15 14 14 15 15 16 16 17 17 17 17 17 17 17 17 16 17 17 17 16 16 16 16
12 12 12 13 13 13 13 14 14 14 14 14 14 15 14 14 15 15 15 14 15 14 15 14 14 15 16 16 17 17 17 16 16 16 17 17 17 17 17 17 17 17 16 15 15
12 12 12 12 13 13 13 14 14 14 14 14 14 14 14 14 15 15 14 14 14 14 14 14 14 14 15 15 16 16 16 16 17 17 16 17 18 18 17 18 17 17 17 16 16
12 12 12 12 12 13 13 13 13 14 14 14 15 14 14 14 15 15 14 14 14 14 14 14 14 14 15 15 15 15 16 16 17 18 17 18 17 18 18 18 18 17 17 17 16
11 12 12 12 12 12 13 13 13 14 15 14 14 15 13 14 14 14 14 14 14 14 13 14 14 14 14 14 15 16 15 17 17 17 17 18 18 18 18 18 18 18 18 17 16
11 11 11 12 12 12 13 12 13 13 14 15 15 15 13 13 14 14 14 14 14 14 13 14 14 14 14 15 15 16 15 16 16 17 17 18 18 18 18 18 18 18 17 17 17
11 11 11 11 12 12 12 12 13 13 14 14 15 14 14 14 14 13 13 13 13 14 13 14 14 14 14 14 15 15 16 16 17 16 17 18 17 18 19 19 19 18 18 17 16
11 11 11 11 11 11 11 12 12 12 10 14 14 14 14 14 14 14 13 13 14 13 13 14 15 15 14 15 15 15 16 16 16 17 17 18 17 19 19 19 19 19 18 18 17
11 11 11 11 11 11 11 11 12 12 13 13 13 14 14 14 13 13 13 13 13 13 13 14 14 14 15 15 15 15 16 16 17 17 15 18 17 18 19 19 19 19 18 18 18
10 10 10 10 11 11 11 11 11 12 12 13 13 13 13 13 14 13 13 13 13 13 13 13 13 14 15 15 16 15 16 16 14 13 12 17 17 18 19 19 19 19 19 18 18
10 10 10 10 10 11 11 11 11 12 11 12 12 14 13 13 13 13 13 14 14 13 13 13 14 15 15 15 15 15 16 15 13 11 13 16 17 18 19 18 17 18 19 18 17
10 10 10 10 10 10 10 10 12 11 11 12 13 13 12 13 13 13 14 14 14 14 13 14 14 15 15 15 15 16 16 17 16 15 13 16 17 18 19 18 18 18 18 18 18
9 9 9 9 10 10 10 11 11 11 11 11 12 12 12 13 13 13 14 14 14 14 14 14 14 15 16 16 16 16 16 16 16 13 13 14 16 17 18 18 18 18 18 18 18
9 8 8 9 9 9 9 10 11 11 10 11 11 11 11 11 11 12 13 13 13 14 14 14 14 15 15 15 16 16 16 16 15 15 10 10 15 18 18 18 18 18 18 18 18
8 8 8 8 8 8 9 9 9 10 11 11 11 11 11 11 11 12 13 13 13 13 14 14 14 14 15 16 16 16 16 16 16 15 15 14 16 18 18 18 18 18 18 18 18
8 8 8 8 7 7 8 9 9 10 11 11 11 11 11 11 11 11 12 12 13 13 13 13 13 14 15 15 15 16 15 15 15 15 16 13 16 17 18 18 18 18 18 18 18
8 8 8 7 7 7 8 9 9 10 10 10 10 11 10 11 11 11 11 12 12 12 12 13 13 14 14 13 14 15 15 15 15 14 14 15 16 17 17 17 18 18 18 19 18
7 7 8 7 7 7 7 8 9 10 10 10 10 10 10 10 11 10 10 11 11 11 11 12 12 12 12 13 13 13 14 14 14 14 14 15 15 16 17 17 17 18 18 17 17
8 7 7 7 8 8 8 8 8 9 9 10 10 10 10 10 10 10 9 10 10 10 10 11 12 12 12 13 13 13 14 14 13 14 14 14 15 16 16 17 18 17 18 17 17
8 8 8 8 8 8 8 8 8 9 9 9 9 9 10 10 10 10 10 10 10 10 10 10 10 11 11 12 12 13 13 13 12 12 13 14 14 15 16 16 17 17 17 18 18
Height
3147 3147 3147 3147 3147 3147 3147 3147 3148 3149 3151 3153 3155 3158 3160 3161 3164 3165 3167 3170 3171 3172 3173 3174 3175 3175 3175 3174 3174 3175 3176 3174 3175 3174 3172 3172 3174 3172 3169 3170 3167 3165 3165 3166 3165
3145 3146 3146 3146 3146 3146 3146 3146 3147 3148 3150 3152 3154 3157 3159 3161 3164 3166 3168 3169 3171 3173 3174 3175 3175 3176 3176 3177 3176 3175 3175 3176 3176 3174 3173 3172 3172 3171 3171 3169 3168 3165 3165 3165 3166
3144 3144 3145 3145 3145 3146 3146 3145 3146 3147 3149 3151 3153 3156 3158 3161 3164 3165 3167 3169 3171 3173 3174 3175 3176 3177 3178 3178 3177 3173 3173 3174 3174 3173 3174 3174 3171 3171 3171 3170 3168 3168 3166 3165 3166
3143 3143 3143 3144 3145 3145 3145 3145 3145 3146 3147 3149 3152 3154 3157 3160 3165 3164 3167 3169 3170 3172 3174 3175 3176 3176 3178 3177 3176 3173 3171 3173 3175 3175 3175 3174 3174 3174 3172 3170 3169 3169 3168 3167 3168
3141 3142 3143 3143 3143 3144 3144 3144 3144 3145 3146 3147 3150 3152 3155 3158 3161 3162 3164 3167 3169 3171 3173 3174 3175 3176 3177 3176 3176 3173 3172 3174 3176 3175 3174 3175 3175 3174 3172 3170 3168 3168 3168 3168 3168
3140 3141 3141 3142 3142 3142 3143 3143 3143 3144 3145 3146 3148 3150 3153 3156 3156 3159 3162 3165 3167 3170 3172 3173 3175 3176 3176 3176 3175 3173 3171 3171 3173 3174 3174 3175 3175 3173 3170 3169 3168 3168 3168 3168 3168
3139 3139 3139 3140 3141 3141 3142 3142 3142 3143 3144 3145 3146 3147 3151 3153 3153 3157 3160 3163 3166 3167 3169 3172 3172 3174 3173 3175 3174 3172 3171 3171 3172 3173 3174 3174 3174 3172 3170 3169 3168 3167 3167 3168 3168
3138 3138 3138 3138 3139 3140 3141 3141 3142 3142 3142 3143 3145 3146 3148 3148 3151 3156 3159 3162 3165 3167 3168 3169 3170 3171 3172 3172 3173 3172 3172 3171 3171 3171 3172 3173 3170 3171 3171 3169 3169 3168 3167 3167 3169
3137 3137 3137 3138 3138 3138 3139 3140 3140 3141 3142 3142 3144 3144 3147 3147 3150 3154 3157 3159 3161 3164 3167 3167 3168 3170 3171 3172 3172 3172 3171 3170 3173 3173 3173 3173 3168 3168 3170 3169 3169 3168 3167 3167 3168
3135 3135 3135 3136 3136 3136 3137 3138 3139 3140 3141 3141 3142 3145 3144 3144 3146 3149 3153 3156 3158 3160 3165 3167 3167 3168 3170 3172 3171 3171 3171 3171 3170 3175 3176 3171 3166 3166 3167 3168 3168 3168 3166 3165 3166
3134 3134 3134 3135 3135 3136 3137 3138 3140 3140 3139 3139 3140 3141 3140 3143 3145 3147 3149 3152 3154 3157 3160 3163 3164 3164 3167 3170 3171 3171 3171 3170 3168 3169 3170 3164 3164 3164 3166 3166 3164 3164 3165 3164 3165
3133 3133 3133 3134 3134 3135 3136 3135 3136 3139 3138 3136 3137 3138 3140 3141 3143 3145 3147 3149 3151 3153 3157 3161 3158 3164 3166 3167 3169 3170 3169 3167 3165 3165 3166 3162 3161 3162 3163 3162 3161 3161 3162 3162 3163
3132 3132 3132 3133 3133 3134 3134 3135 3136 3136 3135 3135 3134 3136 3138 3140 3142 3144 3145 3146 3149 3152 3154 3156 3159 3162 3163 3164 3166 3167 3167 3165 3167 3161 3161 3159 3156 3157 3159 3159 3157 3157 3158 3160 3161
3131 3131 3132 3132 3134 3133 3134 3135 3135 3136 3135 3136 3134 3136 3137 3139 3142 3142 3143 3147 3147 3150 3154 3155 3157 3158 3160 3161 3164 3163 3164 3164 3162 3162 3160 3159 3157 3154 3154 3154 3154 3153 3155 3156 3158
3130 3130 3130 3131 3132 3133 3135 3135 3135 3136 3136 3138 3136 3136 3136 3139 3141 3140 3141 3143 3145 3148 3152 3152 3153 3155 3156 3158 3162 3159 3160 3160 3159 3158 3158 3156 3155 3152 3152 3151 3151 3150 3150 3153 3154
3128 3129 3129 3130 3131 3132 3133 3134 3135 3138 3135 3137 3137 3137 3137 3137 3140 3140 3141 3144 3146 3147 3148 3148 3151 3151 3152 3154 3156 3157 3157 3156 3155 3154 3154 3154 3154 3148 3148 3147 3147 3146 3148 3149 3150
3127 3127 3128 3128 3130 3131 3133 3134 3137 3136 3138 3139 3137 3136 3137 3138 3139 3140 3141 3142 3143 3145 3145 3146 3146 3147 3150 3150 3153 3155 3156 3154 3153 3153 3152 3151 3151 3147 3146 3144 3143 3143 3144 3145 3148
3125 3126 3126 3127 3129 3130 3132 3135 3136 3137 3137 3136 3134 3133 3136 3138 3139 3139 3140 3139 3140 3142 3143 3144 3142 3141 3144 3148 3150 3151 3152 3154 3154 3153 3147 3148 3147 3145 3144 3142 3141 3143 3144 3145 3147
3124 3125 3125 3126 3128 3130 3133 3133 3134 3136 3137 3135 3134 3133 3137 3137 3138 3138 3139 3138 3139 3139 3142 3140 3138 3139 3142 3145 3147 3146 3147 3147 3147 3147 3145 3145 3144 3143 3142 3141 3141 3142 3144 3146 3148
3124 3125 3126 3126 3127 3129 3131 3132 3134 3134 3134 3135 3134 3135 3135 3136 3137 3137 3136 3136 3135 3135 3138 3137 3136 3136 3139 3141 3143 3143 3144 3143 3142 3146 3147 3140 3140 3140 3140 3140 3142 3141 3141 3144 3146
3125 3126 3127 3126 3128 3129 3130 3132 3133 3135 3134 3135 3133 3134 3134 3135 3135 3136 3136 3135 3133 3132 3133 3135 3137 3131 3135 3137 3138 3140 3140 3140 3139 3138 3139 3142 3137 3138 3138 3137 3137 3137 3139 3140 3143
3125 3127 3127 3126 3129 3129 3130 3131 3132 3132 3132 3132 3133 3133 3133 3134 3134 3133 3133 3134 3132 3131 3131 3130 3131 3128 3130 3132 3134 3135 3135 3135 3133 3134 3134 3134 3133 3134 3134 3134 3133 3133 3135 3137 3139
3125 3126 3127 3126 3127 3128 3129 3129 3130 3130 3130 3131 3131 3131 3129 3130 3131 3130 3131 3132 3130 3130 3129 3129 3127 3126 3124 3129 3130 3131 3131 3131 3131 3131 3131 3132 3130 3130 3130 3130 3130 3130 3132 3135 3136
3126 3126 3126 3126 3127 3127 3127 3128 3127 3128 3129 3129 3129 3128 3128 3128 3128 3129 3128 3129 3127 3127 3127 3127 3125 3124 3125 3125 3126 3127 3127 3128 3128 3128 3128 3127 3124 3124 3125 3125 3125 3124 3127 3127 3129
3125 3125 3125 3125 3126 3126 3127 3127 3126 3127 3128 3126 3126 3126 3126 3126 3126 3124 3124 3125 3125 3124 3124 3125 3123 3122 3123 3124 3123 3122 3124 3124 3124 3125 3125 3123 3122 3120 3119 3119 3119 3121 3123 3125 3127
3124 3124 3124 3124 3124 3125 3125 3125 3125 3125 3125 3122 3123 3123 3123 3124 3123 3122 3122 3122 3121 3121 3120 3120 3119 3118 3118 3119 3120 3118 3118 3118 3120 3120 3120 3119 3119 3117 3116 3115 3115 3118 3121 3123 3125
3122 3121 3121 3121 3121 3121 3121 3121 3121 3121 3122 3121 3120 3119 3120 3120 3119 3118 3118 3118 3117 3117 3117 3118 3117 3115 3114 3115 3113 3112 3112 3115 3115 3115 3116 3114 3114 3112 3111 3112 3111 3111 3114 3115 3118
Wind_Speed
6 6 6 5 4 3 3 1 5 10 11 11 10 11 10 9 8 9 14 16 16 13 17 16 12 6 5 5 8 7 3 4 8 6 5 12 3 2 0 6 8 10 7 5 13
6 7 7 7 6 6 4 3 2 8 10 11 11 11 11 9 9 9 14 17 17 17 16 11 10 6 4 6 10 8 7 8 2 4 4 2 1 7 4 3 4 7 7 6 9
6 7 7 7 7 7 7 6 5 5 9 11 11 12 13 11 10 12 13 17 18 17 13 10 6 2 4 9 15 12 8 3 3 3 3 3 6 7 8 5 3 7 8 2 9
5 6 6 6 6 7 8 8 8 6 6 11 11 11 13 14 10 12 13 16 18 16 13 10 6 2 4 9 10 6 4 6 10 4 4 0 5 2 10 3 0 6 10 9 8
5 6 7 7 6 6 7 8 9 8 8 8 11 12 12 15 14 17 16 16 19 17 13 9 6 1 1 5 7 7 8 13 10 6 9 9 5 4 10 5 1 2 5 5 10
6 6 7 8 7 6 6 7 8 10 9 9 9 12 12 12 19 15 19 18 18 17 15 11 6 5 5 5 2 6 9 9 11 9 3 9 5 9 9 6 8 5 5 3 4
6 7 8 8 8 8 7 6 7 8 10 10 9 10 12 13 18 20 17 19 20 22 18 13 9 7 9 4 3 4 4 6 5 5 2 6 14 8 8 8 6 8 5 5 3
5 6 7 8 9 10 9 6 6 7 8 10 12 11 8 18 16 11 15 15 19 22 20 15 12 12 12 10 4 5 2 7 3 9 8 9 17 15 15 8 5 6 9 6 6
5 5 7 7 8 10 9 8 7 7 8 8 10 11 7 13 17 12 13 13 18 21 25 19 15 16 19 15 8 3 6 12 13 13 6 15 20 15 18 17 10 1 5 11 9
6 5 6 6 7 8 9 9 9 8 7 7 7 7 11 13 16 17 15 14 14 20 23 25 20 18 23 14 12 9 15 14 11 12 15 24 17 18 16 14 12 13 8 9 13
6 6 6 6 7 7 7 9 10 10 8 9 7 11 10 13 14 17 19 17 17 22 23 24 24 24 21 18 17 13 15 18 12 15 16 21 25 18 18 15 12 18 14 13 11
6 6 6 6 7 7 7 10 9 9 7 10 10 11 13 13 14 14 18 19 21 21 22 25 32 24 22 20 16 14 19 18 21 18 21 16 21 17 19 17 9 11 14 11 11
6 6 6 6 7 7 9 8 8 9 12 5 7 9 17 14 12 13 19 17 19 19 20 24 15 26 25 17 14 16 19 21 27 31 21 18 12 19 18 13 21 16 16 18 17
6 6 6 6 7 7 6 5 5 6 6 5 1 8 16 14 6 9 17 17 18 19 17 21 20 15 18 19 14 20 9 23 23 23 19 17 11 19 13 12 15 17 18 18 21
6 6 6 6 6 4 4 3 2 1 3 3 4 4 9 12 6 6 17 18 18 17 15 19 14 17 19 18 14 20 18 21 25 21 18 12 6 10 17 19 20 15 20 10 18
6 6 6 6 5 4 4 2 3 1 2 2 2 2 3 6 6 4 12 17 9 10 14 15 18 18 21 20 16 17 19 19 22 13 6 9 5 19 16 18 16 10 13 14 15
5 5 6 6 5 5 6 6 2 1 4 5 7 10 8 3 12 12 13 17 15 12 17 17 18 22 23 23 19 18 17 9 5 4 6 4 8 10 14 19 17 10 9 12 11
3 4 5 5 5 4 7 9 2 6 9 11 16 8 10 7 7 11 14 18 19 21 15 9 12 14 22 21 18 15 16 8 5 3 7 10 4 16 18 15 11 10 6 5 9
2 3 3 3 4 6 9 9 3 5 11 13 8 2 10 5 4 7 12 18 19 24 21 8 9 3 8 8 11 13 14 18 8 8 6 7 10 12 9 12 15 14 9 10 12
3 5 5 3 3 6 10 9 7 9 6 10 9 4 7 6 3 5 3 6 15 26 22 20 21 12 6 10 9 12 13 10 10 3 4 6 5 10 12 14 15 19 15 14 17
8 6 6 4 4 3 7 7 10 3 6 6 8 11 7 9 7 7 0 3 7 8 15 30 29 28 22 16 7 10 14 14 13 9 8 4 8 12 12 16 23 17 20 18 25
9 8 6 6 5 6 5 1 2 2 7 3 5 6 5 8 6 4 2 7 11 9 7 10 26 37 34 25 21 17 12 9 7 7 8 6 15 16 21 23 21 14 20 22 24
6 8 3 5 5 3 1 2 2 6 6 1 4 6 11 11 8 2 8 9 10 11 7 6 4 7 20 25 14 10 5 5 11 9 7 6 22 31 21 19 19 15 26 22 27
7 7 4 5 1 1 4 1 4 2 1 5 6 6 7 9 9 9 14 9 13 11 7 6 5 5 6 4 5 11 13 11 10 10 12 18 20 25 24 22 20 16 21 22 23
8 6 6 3 4 3 7 9 10 7 2 4 6 7 8 9 12 11 12 10 7 4 4 7 3 2 2 7 11 14 15 16 18 16 11 15 17 12 16 19 16 17 15 19 24
10 11 11 10 13 14 14 15 15 11 7 8 8 8 8 8 9 9 10 10 9 10 6 4 9 14 15 14 15 20 23 23 15 11 18 15 12 14 15 18 19 21 23 20 25
6 11 14 16 16 17 18 21 21 20 14 9 12 15 15 18 18 19 16 21 17 17 12 8 7 11 11 16 22 27 22 23 12 8 7 15 16 17 14 12 15 18 25 25 29
Wind_Direction
251 253 253 255 261 274 286 297 196 197 195 193 187 176 170 162 150 153 157 149 147 141 137 136 137 124 82 38 3 357 3 23 93 139 72 136 82 157 19 7 356 327 305 218 164
251 246 246 248 251 258 265 270 230 205 205 200 194 186 179 174 153 145 167 161 155 152 147 145 150 135 86 14 327 302 308 2 135 262 257 34 357 297 96 22 340 10 332 218 166
254 248 247 245 247 247 250 255 256 229 213 210 202 194 188 181 165 176 166 172 167 172 171 167 183 114 50 18 4 290 315 206 206 231 168 16 41 78 56 322 341 36 31 359 148
256 247 246 244 245 246 246 248 249 247 232 220 210 204 196 189 184 191 174 182 182 182 187 182 187 121 28 18 3 324 158 329 237 291 305 249 9 205 321 37 19 20 73 75 125
257 243 237 243 247 246 245 248 248 248 247 234 222 212 204 194 195 192 188 185 189 190 200 209 179 255 227 332 346 349 296 273 289 346 270 235 315 274 304 341 297 342 18 78 108
267 252 237 238 245 252 250 251 249 247 248 243 233 223 211 198 205 194 197 193 193 198 205 207 197 251 288 311 34 349 315 280 271 254 253 217 316 315 343 312 242 290 2 39 120
262 258 250 244 241 243 250 255 257 252 245 246 244 235 219 210 210 208 200 201 199 199 208 206 215 254 268 299 261 351 320 270 251 176 292 274 280 292 339 295 250 263 303 321 297
275 259 249 249 249 247 247 250 254 256 250 242 238 237 215 223 224 219 194 204 206 204 211 220 221 235 256 268 276 327 332 349 239 224 216 287 291 256 292 285 266 264 268 263 298
275 262 258 249 245 247 248 251 257 260 253 251 241 235 214 221 231 224 197 203 206 207 207 223 228 232 240 269 259 263 347 346 2 270 263 260 302 254 286 296 250 227 282 253 249
289 279 264 259 257 256 255 259 265 270 278 269 251 233 209 213 213 214 215 206 205 208 209 219 233 234 238 251 251 305 322 326 316 339 294 281 277 280 275 294 264 246 266 260 255
278 274 266 257 255 251 251 258 268 275 276 265 244 217 211 211 209 210 210 220 211 210 212 215 227 231 235 240 267 275 300 303 317 335 316 273 260 271 276 294 267 257 257 266 277
276 276 272 257 254 253 251 251 264 284 290 280 244 221 219 223 210 205 208 212 208 211 213 220 228 230 244 248 261 259 286 288 307 321 325 320 273 268 265 248 274 279 264 263 269
280 278 274 264 258 261 263 284 307 313 316 275 269 200 203 221 223 220 218 204 211 212 216 225 226 231 239 244 242 255 283 299 309 322 320 337 284 252 261 256 264 253 247 246 265
265 265 265 259 253 259 278 285 299 320 324 4 54 185 213 227 203 221 221 211 210 220 214 233 233 218 218 236 251 281 278 313 314 324 303 325 278 261 267 278 282 272 245 238 238
259 259 263 257 253 254 257 298 276 313 24 74 69 120 208 223 186 239 222 212 226 230 219 224 234 230 238 237 265 267 300 304 308 304 293 303 263 290 308 292 305 300 236 229 240
260 258 257 255 251 215 197 181 200 204 39 52 35 302 235 210 170 128 184 209 231 220 235 244 248 243 230 239 253 269 294 301 299 286 293 309 328 300 321 306 305 284 213 237 265
253 251 251 248 239 217 190 176 147 39 59 17 346 276 281 248 201 211 198 212 224 225 239 246 261 248 234 244 239 269 290 296 313 321 214 292 330 299 326 308 283 262 263 246 198
250 244 243 239 229 205 185 180 152 78 25 14 345 249 224 262 264 232 227 229 226 234 255 254 287 236 223 235 259 282 284 255 238 223 270 309 261 298 300 282 214 226 288 238 212
209 210 210 208 211 195 189 186 118 53 36 14 38 139 174 99 263 308 260 246 244 239 233 242 251 220 212 231 255 274 296 285 266 295 297 284 287 298 288 259 243 253 228 242 225
150 132 103 112 173 189 199 198 139 63 47 15 18 34 347 328 341 351 320 290 294 253 240 252 262 292 232 264 254 258 283 278 243 185 265 274 244 276 304 302 295 256 267 232 229
160 115 88 100 110 174 213 217 229 318 347 324 3 330 344 356 339 317 330 49 8 357 254 248 258 272 276 286 277 281 291 283 263 224 177 230 269 266 259 295 308 282 248 228 225
149 150 90 102 61 88 99 80 247 260 27 275 8 292 284 311 342 341 209 308 331 335 344 255 250 258 269 271 274 284 276 296 256 242 223 247 263 308 284 289 294 285 228 219 224
167 159 123 105 92 79 350 304 339 17 15 41 330 5 345 297 322 302 295 325 295 304 323 329 236 261 265 258 263 226 187 315 343 343 321 257 280 275 291 283 282 279 237 234 226
199 207 210 151 56 14 13 357 304 293 7 318 315 298 309 326 290 286 295 280 296 303 307 309 277 249 268 276 212 239 247 270 303 322 317 310 329 276 288 283 286 286 251 242 251
230 238 260 260 305 285 304 307 294 299 271 297 298 285 296 304 293 296 293 291 317 352 333 293 293 290 238 270 292 298 289 292 294 294 306 311 324 310 295 292 292 284 234 224 233
238 241 253 261 269 268 264 273 277 267 303 279 270 266 289 297 290 293 299 301 292 294 336 311 286 292 296 287 288 276 280 297 314 278 278 297 296 302 299 287 276 255 245 244 227
267 262 263 264 268 263 261 260 263 268 262 258 278 277 275 278 279 278 284 282 289 288 293 307 298 302 295 297 293 277 281 284 300 295 289 288 294 288 300 305 262 250 243 235 242